Kirksville, MO

12:59 AM CDT on October 22, 2017 (GMT -0500)
Kirksville Regional

Weather History for KIRK - February, 2014

Change the Weather History Date:

Tuesday, February 4, 2014

  Actual Average Record
Temperature  
Mean Temperature 17 °F 27 °F  
Max Temperature 18 °F 37 °F 63 °F (2008)
Min Temperature 16 °F 18 °F -12 °F (1918)
Degree Days  
Heating Degree Days 48 38  
Month to date heating degree days 216 152  
Since 1 July heating degree days 3902 3699  
Cooling Degree Days 0 0  
Month to date cooling degree days 0 0  
Year to date cooling degree days 0 0  
Moisture  
Dew Point 12 °F    
Average Humidity 76    
Maximum Humidity 84    
Minimum Humidity 67    
Precipitation  
Precipitation 0.37 in 0.05 in 1.05 in (1942)
Month to date precipitation 0.81 0.21  
Year to date precipitation 1.67 1.48  
Sea Level Pressure  
Sea Level Pressure 30.20 in    
Wind  
Wind Speed 13 mph (NE)    
Max Wind Speed 23 mph    
Max Gust Speed 31 mph    
Visibility 2 miles    
Events Fog , Snow    
T = Trace of Precipitation, MM = Missing Value Source: NWS Daily Summary

Daily Weather History Graph

Daily Weather History Graph

Search for Another Location

Airport or City:

Trip Planner

Search our weather history database for the weather conditions in past years. The results will help you decide how hot, cold, wet, or windy it might be!

Date:

Astronomy

Feb. 04, 2014 Rise Set
Actual Time 7:15 AM CST 5:32 PM CST
Civil Twilight 6:47 AM CST 6:01 PM CST
Nautical Twilight 6:15 AM CST 6:33 PM CST
Astronomical Twilight 5:43 AM CST 7:05 PM CST
Moon 9:53 AM CST (2/4) 11:27 PM CST (2/4)
Length of Visible Light 11h 13m
Length of Day
10h 17m
Waxing Crescent, 29% of the Moon is Illuminated
Feb 4
Waxing Crescent
Feb 6
First Quarter
Feb 14
Full
Feb 22
Last Quarter
Mar 1
New

Hourly Weather History & Observations

Time (CST) Temp. Windchill Dew Point Humidity Pressure Visibility Wind Dir Wind Speed Gust Speed Precip Events Conditions
12:55 AM 16.0 °F 7.4 °F 9.0 °F 74% 30.37 in 10.0 mi ENE 5.8 mph - N/A   Overcast
1:55 AM 16.0 °F 7.4 °F 9.0 °F 74% 30.35 in 10.0 mi ENE 5.8 mph - N/A   Overcast
2:55 AM 16.0 °F 6.3 °F 10.0 °F 77% 30.34 in 10.0 mi East 6.9 mph - N/A   Overcast
3:55 AM 16.0 °F 7.4 °F 10.0 °F 77% 30.34 in 10.0 mi ENE 5.8 mph - N/A   Overcast
4:55 AM 17.1 °F 10.0 °F 10.0 °F 74% 30.37 in 10.0 mi ENE 4.6 mph - N/A   Overcast
5:55 AM 16.0 °F 6.3 °F 9.0 °F 74% 30.35 in 10.0 mi NE 6.9 mph - N/A   Overcast
6:55 AM 16.0 °F 5.3 °F 8.1 °F 71% 30.37 in 10.0 mi NE 8.1 mph - N/A   Overcast
7:55 AM 16.0 °F 7.4 °F 9.0 °F 74% 30.36 in 9.0 mi ENE 5.8 mph - N/A   Overcast
8:55 AM 17.1 °F 5.8 °F 9.0 °F 71% 30.34 in 10.0 mi ENE 9.2 mph - N/A   Overcast
9:55 AM 18.0 °F 6.9 °F 10.0 °F 71% 30.35 in 9.0 mi ENE 9.2 mph - N/A   Overcast
10:16 AM 18.0 °F 8.7 °F 10.9 °F 74% 30.29 in 1.8 mi ENE 6.9 mph - 0.00 in Snow Light Snow
10:29 AM 17.1 °F 5.0 °F 12.0 °F 81% 30.27 in 0.8 mi ENE 10.4 mph - 0.01 in Snow Light Snow
10:55 AM 18.0 °F 5.4 °F 12.9 °F 81% 30.31 in 1.0 mi NE 11.5 mph - 0.01 in Snow Light Snow
11:10 AM 18.0 °F 6.1 °F 12.9 °F 81% 30.24 in 0.8 mi ENE 10.4 mph - 0.01 in Snow Light Snow
11:18 AM 18.0 °F 6.1 °F 12.9 °F 81% 30.25 in 0.5 mi ENE 10.4 mph - 0.01 in Snow Snow
11:40 AM 18.0 °F 4.8 °F 12.9 °F 81% 30.23 in 0.8 mi ENE 12.7 mph - 0.02 in Snow Light Snow
11:55 AM 18.0 °F 6.9 °F 12.9 °F 81% 30.28 in 0.8 mi ENE 9.2 mph - 0.02 in Snow Light Snow
12:02 PM 18.0 °F 6.9 °F 12.9 °F 81% 30.22 in 0.5 mi ENE 9.2 mph - 0.00 in Snow Snow
12:13 PM 18.0 °F 4.8 °F 12.9 °F 81% 30.22 in 0.5 mi NE 12.7 mph - 0.01 in Snow Snow
12:55 PM 18.0 °F 5.4 °F 12.9 °F 81% 30.26 in 0.2 mi ENE 11.5 mph - 0.04 in Snow Heavy Snow
1:14 PM 18.0 °F 6.1 °F 12.9 °F 81% 30.18 in 0.2 mi ENE 10.4 mph 20.7 mph 0.02 in Snow Heavy Snow
1:44 PM 18.0 °F 2.6 °F 14.0 °F 84% 30.14 in 0.5 mi NE 17.3 mph - 0.04 in Fog , Snow Light Snow
1:55 PM 18.0 °F 3.1 °F 12.9 °F 81% 30.19 in 0.5 mi NE 16.1 mph - 0.05 in Snow Snow
2:04 PM 18.0 °F 4.2 °F 12.9 °F 81% 30.12 in 0.5 mi NE 13.8 mph - 0.00 in Snow Snow
2:31 PM 18.0 °F 2.6 °F 12.9 °F 81% 30.11 in 0.2 mi NE 17.3 mph - 0.00 in Snow Heavy Snow
2:43 PM 18.0 °F 2.6 °F 12.9 °F 81% 30.11 in 0.5 mi NE 17.3 mph 24.2 mph 0.01 in Snow Snow
2:52 PM 17.6 °F 1.3 °F 12.2 °F 79% 30.10 in 0.8 mi NE 19.6 mph - 0.01 in Snow Light Snow
2:55 PM 18.0 °F 1.7 °F 12.9 °F 81% 30.15 in 0.8 mi NE 19.6 mph - 0.01 in Snow Light Snow
3:02 PM 18.0 °F 2.2 °F 12.9 °F 81% 30.08 in 1.0 mi NE 18.4 mph - 0.00 in Snow Light Snow
3:17 PM 17.1 °F 2.0 °F 12.9 °F 84% 30.09 in 0.5 mi NE 16.1 mph - 0.01 in Fog , Snow Light Snow
3:44 PM 17.1 °F 2.0 °F 12.9 °F 84% 30.11 in 0.5 mi NE 16.1 mph - 0.02 in Fog , Snow Snow
3:55 PM 17.1 °F 2.0 °F 12.9 °F 84% 30.17 in 0.2 mi NE 16.1 mph - 0.03 in Fog , Snow Snow
4:55 PM 18.0 °F 3.1 °F 14.0 °F 84% 30.17 in 0.2 mi NNE 16.1 mph - 0.04 in Fog , Snow Snow
5:14 PM 18.0 °F 3.1 °F 14.0 °F 84% 30.11 in 0.2 mi NNE 16.1 mph - 0.02 in Fog , Snow Heavy Snow
5:46 PM 18.0 °F 1.7 °F 14.0 °F 84% 30.09 in 0.8 mi NNE 19.6 mph - 0.05 in Snow Light Snow
5:55 PM 17.1 °F -0.3 °F 14.0 °F 88% 30.14 in 0.5 mi NNE 21.9 mph - 0.05 in Fog , Snow Snow
6:10 PM 17.1 °F 0.1 °F 14.0 °F 88% 30.09 in 0.8 mi NNE 20.7 mph - 0.02 in Snow Light Snow
6:55 PM 17.1 °F 0.6 °F 12.9 °F 84% 30.14 in 0.8 mi NNE 19.6 mph - 0.02 in Snow Light Snow
7:16 PM 17.1 °F 0.1 °F 12.9 °F 84% 30.08 in 1.0 mi NNE 20.7 mph - 0.01 in Snow Light Snow
7:34 PM 17.1 °F 1.0 °F 12.9 °F 84% 30.08 in 0.8 mi NNE 18.4 mph - 0.01 in Snow Light Snow
7:41 PM 17.1 °F 1.5 °F 12.9 °F 84% 30.09 in 1.0 mi NNE 17.3 mph - 0.01 in Snow Light Snow
7:55 PM 17.1 °F 1.0 °F 12.9 °F 84% 30.16 in 1.0 mi NNE 18.4 mph - 0.02 in Snow Light Snow
8:38 PM 17.1 °F 1.5 °F 12.9 °F 84% 30.11 in 0.8 mi NNE 17.3 mph - 0.02 in Snow Light Snow
8:55 PM 17.1 °F 3.0 °F 12.9 °F 84% 30.17 in 0.8 mi NNE 13.8 mph - 0.03 in Snow Light Snow
9:40 PM 17.1 °F 1.0 °F 12.9 °F 84% 30.11 in 1.0 mi North 18.4 mph 25.3 mph 0.01 in Snow Light Snow
9:48 PM 17.1 °F 0.6 °F 12.9 °F 84% 30.11 in 0.8 mi North 19.6 mph - 0.01 in Snow Light Snow
9:55 PM 17.1 °F 0.6 °F 12.9 °F 84% 30.17 in 0.8 mi North 19.6 mph - 0.01 in Snow Light Snow
10:18 PM 17.1 °F 1.5 °F 12.9 °F 84% 30.12 in 0.8 mi North 17.3 mph - 0.01 in Snow Light Snow
10:29 PM 17.1 °F 2.0 °F 12.9 °F 84% 30.13 in 0.5 mi North 16.1 mph - 0.01 in Fog Light Freezing Fog
10:39 PM 17.1 °F 2.0 °F 12.9 °F 84% 30.13 in 0.8 mi North 16.1 mph - 0.02 in   Mist
10:48 PM 17.1 °F 1.5 °F 12.9 °F 84% 30.13 in 0.8 mi North 17.3 mph - 0.02 in   Mist
10:55 PM 17.1 °F 0.6 °F 12.9 °F 84% 30.19 in 0.8 mi North 19.6 mph 27.6 mph 0.02 in   Mist
11:55 PM 16.0 °F -1.3 °F 12.0 °F 84% 30.17 in 0.8 mi North 20.7 mph 31.1 mph 0.02 in   Mist